Regional Weather Roundup
Issued by NWS

Home | Current Version | Previous Version | Graphics & Text | Print | Product List | Glossary On
Versions: 1 2 3 4 5 6 7 8 9 10 11 12 13 14 15 16 17 18 19 20 21 22 23 24 25 26 27 28 29 30 31 32 33 34 35 36 37 38 39 40 41 42 43 44 45 46 47 48 49 50
000
ASUS45 KABQ 230010
RWRNM
NEW MEXICO REGIONAL WEATHER ROUNDUP
NATIONAL WEATHER SERVICE ALBUQUERQUE NM
500 PM MST THU FEB 22 2018

NOTE: "FAIR" MEANS FEW OR NO CLOUDS BELOW 12,000 FEET AGL WITH NO
       SIGNIFICANT WEATHER OR OBSTRUCTIONS TO VISION.

      THIS PRODUCT IS RELEASED AS TWO VERSIONS.  ONE VERSION NEAR
      THE TOP OF THE HOUR CONTAINING PRELIMINARY DATA FROM ALBUQUERQUE
      AND OTHER STATIONS.  A FINAL VERSION WITH ADDITIONAL DATA IS
      ISSUED ABOUT 10 MINUTES AFTER THE HOUR.

NMZ501-503-504-510>518-230100-
NORTHWEST PLATEAU/NORTHCENTRAL MOUNTAINS

CITY           SKY/WX    TMP DP  RH WIND       PRES   REMARKS
FARMINGTON     FAIR      41   2  19 SW12      29.96F
6HR MIN TEMP:  36; 6HR MAX TEMP:  43;

LOS ALAMOS     FAIR      33  11  41 SW8       30.02S WCI  26
SANTA FE       FAIR      38  14  37 W15G23    30.01S WCI  29
6HR MIN TEMP:  30; 6HR MAX TEMP:  40; 6HR PCP:  0.01;

TAOS           FAIR      29  13  51 W20       30.04R WCI  16
ANGEL FIRE     MOCLDY    24  14  65 W6        29.98S WCI  17

$$
NMZ402-403-502-505>509-230100-
WESTCENTRAL MOUNTAINS/SOUTHWEST MOUNTAINS

CITY           SKY/WX    TMP DP  RH WIND       PRES   REMARKS
GALLUP         FAIR      36  12  37 S16       29.99F WCI  26
6HR MIN TEMP:  30; 6HR MAX TEMP:  37;

GRANTS         FAIR      39   8  27 SW18G24   30.02R WCI  30
SILVER CITY    FAIR      46  15  28 W17G25    30.10S

$$
NMZ407-409-411-412-230100-
SOUTHERN DESERTS

CITY           SKY/WX    TMP DP  RH WIND       PRES   REMARKS
DEMING         FAIR      53  20  27 W16G24    30.10R
6HR MIN TEMP:  48; 6HR MAX TEMP:  54;

LAS CRUCES     FAIR      55  18  24 W15G23    30.08S
HOLLOMAN AFB   FAIR      56  18  23 S15       30.08S
ALAMOGORDO     FAIR      55  18  22 S12G18    30.08S
T OR C         FAIR      56   1  10 W17       30.02R
6HR MIN TEMP:  52; 6HR MAX TEMP:  58;


$$
NMZ519>523-230100-
CENTRAL VALLEYS/CENTRAL HIGHLANDS

CITY           SKY/WX    TMP DP  RH WIND       PRES   REMARKS
ALBUQUERQUE    FAIR      47  10  22 W15       30.01F
6HR MIN TEMP:  35; 6HR MAX TEMP:  48; 6HR PCP: TRACE;

DOUBLE EAGLE   SUNNY     45  12  26 W16       30.02F
MORIARTY ARPT  FAIR      45  14  28 W15       30.02S
6HR MIN TEMP:  40; 6HR MAX TEMP:  46;

CLINES CORNERS NOT AVBL
BELEN          FAIR      51   7  16 W6        30.00F
6HR MIN TEMP:  41; 6HR MAX TEMP:  52;

SOCORRO        FAIR      55   7  14 N6        29.99S
6HR MIN TEMP:  51; 6HR MAX TEMP:  57;


$$
NMZ524>526-539-540-230100-
SOUTHCENTRAL MOUNTAINS

CITY           SKY/WX    TMP DP  RH WIND       PRES   REMARKS
RUIDOSO        NOT AVBL

$$
NMZ527>531-230100-
NORTHEAST HIGHLANDS/NORTHEAST PLAINS

CITY           SKY/WX    TMP DP  RH WIND       PRES   REMARKS
LAS VEGAS      FAIR      36  12  37 SW25G35   29.99R WCI  24
6HR MIN TEMP:  35; 6HR MAX TEMP:  41;

RATON          FAIR      40   4  22 SW25G33   29.93R WCI  29
6HR MIN TEMP:  33; 6HR MAX TEMP:  49;

CLAYTON        FAIR      49  17  28 SW24G31   29.93R
6HR MIN TEMP:  41; 6HR MAX TEMP:  51;


$$
NMZ532>537-230100-
EASTCENTRAL PLAINS

CITY           SKY/WX    TMP DP  RH WIND       PRES   REMARKS
SANTA ROSA     FAIR      50  19  28 W12       29.98R
TUCUMCARI      FAIR      57  19  22 SW18G26   29.95R
6HR MIN TEMP:  45; 6HR MAX TEMP:  60;

CANNON AFB     FAIR      55  20  26 SW18      30.04R
6HR MIN TEMP:  38; 6HR MAX TEMP:  56;

CLOVIS AIRPORT NOT AVBL

$$
NMZ028-029-538-230100-
SOUTHEAST PLAINS

CITY           SKY/WX    TMP DP  RH WIND       PRES   REMARKS
ROSWELL        FAIR      61  23  23 VRB5G18   29.99R
6HR MIN TEMP:  37; 6HR MAX TEMP:  62;

ARTESIA        FAIR      61  21  21 SW20      30.03S
CARLSBAD       FAIR      52  30  43 SE14      30.05R
6HR MIN TEMP:  38; 6HR MAX TEMP:  55;

HOBBS          CLEAR     50  30  46 SE12      30.08R


$$




USA.gov is the U.S. government's official web portal to all federal, state and local government web resources and services.